When you browse on this site, cookies collect data to enhance your experience and personalize the content and advertising you see.
Visit our Privacy Policy to learn more. By continuing to use the site, you agree to this use of cookies and data.
  • In Norway
  • List of Countries
  • For 7 days
  • Water Temperature
  • Satellite Maps
  • Weather Map
  • Weather Widgets
  • user-avatar
    Login

    Hourly Weather Akaba

    Today, 22 March, Friday

    Time Temperature Precipitation Wind Pressure Humidity
    00:00 +19°C° 0 mm 2 mps 751 mmHg 59%
    01:00 +18°C° 0 mm 2 mps 751 mmHg 62%
    02:00 +18°C° 0 mm 2 mps 751 mmHg 64%
    03:00 +17°C° 0 mm 2 mps 751 mmHg 65%
    04:00 +17°C° 0 mm 2 mps 750 mmHg 66%
    05:00 +16°C° 0 mm 2 mps 750 mmHg 67%
    06:00 +17°C° 0 mm 2 mps 751 mmHg 60%
    07:00 +18°C° 0 mm 2 mps 751 mmHg 53%
    08:00 +19°C° 0 mm 2 mps 751 mmHg 47%
    09:00 +20°C° 0 mm 2 mps 751 mmHg 40%
    10:00 +23°C° 0 mm 2 mps 751 mmHg 33%
    11:00 +24°C° 0 mm 3 mps 750 mmHg 26%
    12:00 +25°C° 0 mm 3 mps 750 mmHg 24%
    13:00 +26°C° 0 mm 3 mps 750 mmHg 21%
    14:00 +27°C° 0 mm 3 mps 749 mmHg 18%
    15:00 +26°C° 0 mm 3 mps 749 mmHg 18%
    16:00 +26°C° 0 mm 3 mps 749 mmHg 18%
    17:00 +26°C° 0 mm 3 mps 749 mmHg 18%
    18:00 +25°C° 0 mm 3 mps 749 mmHg 20%
    19:00 +24°C° 0 mm 2 mps 750 mmHg 23%
    20:00 +23°C° 0 mm 2 mps 750 mmHg 25%
    21:00 +23°C° 0 mm 2 mps 750 mmHg 27%
    22:00 +21°C° 0 mm 2 mps 750 mmHg 30%
    23:00 +20°C° 0 mm 2 mps 750 mmHg 33%

    Tomorrow, 23 March, Saturday

    Time Temperature Precipitation Wind Pressure Humidity
    00:00 +20°C° 0 mm 2 mps 750 mmHg 35%
    01:00 +19°C° 0 mm 2 mps 750 mmHg 37%
    02:00 +19°C° 0 mm 2 mps 750 mmHg 39%
    03:00 +18°C° 0 mm 2 mps 749 mmHg 40%
    04:00 +19°C° 0 mm 1 mps 749 mmHg 42%
    05:00 +18°C° 0 mm 1 mps 749 mmHg 43%
    06:00 +19°C° 0 mm 1 mps 749 mmHg 39%
    07:00 +21°C° 0 mm 1 mps 749 mmHg 36%
    08:00 +22°C° 0 mm 1 mps 749 mmHg 32%
    09:00 +23°C° 0 mm 1 mps 749 mmHg 28%
    10:00 +24°C° 0 mm 2 mps 749 mmHg 24%
    11:00 +25°C° 0 mm 2 mps 748 mmHg 20%
    12:00 +26°C° 0 mm 2 mps 748 mmHg 19%
    13:00 +26°C° 0 mm 2 mps 748 mmHg 19%
    14:00 +27°C° 0 mm 2 mps 747 mmHg 18%
    15:00 +26°C° 0 mm 2 mps 747 mmHg 19%
    16:00 +26°C° 0 mm 2 mps 747 mmHg 19%
    17:00 +26°C° 0 mm 2 mps 747 mmHg 20%
    18:00 +25°C° 0 mm 2 mps 747 mmHg 22%
    19:00 +24°C° 0 mm 1 mps 747 mmHg 24%
    20:00 +23°C° 0 mm 1 mps 748 mmHg 25%
    21:00 +23°C° 0 mm 1 mps 747 mmHg 25%
    22:00 +22°C° 0 mm 1 mps 747 mmHg 26%
    23:00 +21°C° 0 mm 2 mps 746 mmHg 26%

    Day after tomorrow, 24 March, Sunday

    Time Temperature Precipitation Wind Pressure Humidity
    00:00 +22°C° 0 mm 1 mps 746 mmHg 28%
    01:00 +21°C° 0 mm 1 mps 745 mmHg 30%
    02:00 +21°C° 0 mm 1 mps 744 mmHg 32%
    03:00 +21°C° 0.1 mm 1 mps 744 mmHg 34%
    04:00 +20°C° 0.1 mm 1 mps 744 mmHg 36%
    05:00 +20°C° 0.1 mm 1 mps 744 mmHg 38%
    06:00 +20°C° 0 mm 2 mps 744 mmHg 36%
    07:00 +21°C° 0 mm 2 mps 744 mmHg 34%
    08:00 +23°C° 0 mm 2 mps 744 mmHg 31%
    09:00 +24°C° 0 mm 2 mps 744 mmHg 30%
    10:00 +25°C° 0 mm 2 mps 743 mmHg 29%
    11:00 +26°C° 0 mm 2 mps 743 mmHg 27%
    12:00 +27°C° 0 mm 2 mps 742 mmHg 26%
    13:00 +28°C° 0 mm 3 mps 741 mmHg 25%
    14:00 +28°C° 0 mm 3 mps 741 mmHg 23%
    15:00 +28°C° 0 mm 4 mps 741 mmHg 22%
    16:00 +27°C° 0 mm 6 mps 741 mmHg 22%
    17:00 +27°C° 0 mm 7 mps 741 mmHg 21%
    18:00 +24°C° 0 mm 6 mps 741 mmHg 24%
    19:00 +23°C° 0 mm 5 mps 742 mmHg 28%
    20:00 +22°C° 0 mm 5 mps 743 mmHg 31%
    21:00 +21°C° 0 mm 4 mps 743 mmHg 34%
    22:00 +20°C° 0 mm 4 mps 743 mmHg 38%
    23:00 +19°C° 0 mm 3 mps 743 mmHg 41%

    25 March, Monday

    Time Temperature Precipitation Wind Pressure Humidity
    00:00 +19°C° 0 mm 3 mps 743 mmHg 43%
    01:00 +18°C° 0 mm 3 mps 742 mmHg 46%
    02:00 +17°C° 0 mm 2 mps 742 mmHg 49%
    03:00 +17°C° 0 mm 2 mps 742 mmHg 52%
    04:00 +16°C° 0 mm 2 mps 742 mmHg 56%
    05:00 +16°C° 0 mm 2 mps 742 mmHg 59%
    06:00 +16°C° 0 mm 2 mps 743 mmHg 61%
    07:00 +16°C° 0 mm 2 mps 743 mmHg 62%
    08:00 +17°C° 0 mm 2 mps 743 mmHg 63%
    09:00 +17°C° 0.1 mm 2 mps 743 mmHg 61%
    10:00 +18°C° 0.1 mm 3 mps 743 mmHg 59%
    11:00 +18°C° 0.1 mm 4 mps 743 mmHg 57%
    12:00 +19°C° 0.1 mm 4 mps 743 mmHg 54%
    13:00 +19°C° 0.1 mm 5 mps 743 mmHg 51%
    14:00 +19°C° 0.1 mm 5 mps 743 mmHg 49%
    15:00 +19°C° 0 mm 6 mps 743 mmHg 45%
    16:00 +18°C° 0 mm 7 mps 744 mmHg 41%
    17:00 +18°C° 0 mm 8 mps 744 mmHg 36%
    18:00 +17°C° 0 mm 7 mps 745 mmHg 38%
    19:00 +16°C° 0 mm 6 mps 746 mmHg 40%
    20:00 +15°C° 0 mm 5 mps 746 mmHg 42%
    21:00 +15°C° 0 mm 4 mps 747 mmHg 43%
    22:00 +14°C° 0 mm 3 mps 747 mmHg 44%
    23:00 +14°C° 0 mm 2 mps 747 mmHg 45%

    26 March, Tuesday

    Time Temperature Precipitation Wind Pressure Humidity
    00:00 +14°C° 0 mm 1 mps 747 mmHg 47%
    01:00 +14°C° 0 mm 1 mps 747 mmHg 48%
    02:00 +13°C° 0 mm 1 mps 747 mmHg 50%
    03:00 +13°C° 0 mm 1 mps 747 mmHg 52%
    04:00 +13°C° 0 mm 1 mps 747 mmHg 54%
    05:00 +12°C° 0 mm 1 mps 748 mmHg 56%
    06:00 +12°C° 0 mm 0 mps 748 mmHg 52%
    07:00 +13°C° 0 mm 0 mps 748 mmHg 49%
    08:00 +14°C° 0 mm 0 mps 748 mmHg 46%
    09:00 +15°C° 0 mm 0 mps 748 mmHg 40%
    10:00 +19°C° 0 mm 1 mps 748 mmHg 34%
    11:00 +20°C° 0 mm 1 mps 748 mmHg 27%
    12:00 +21°C° 0 mm 1 mps 747 mmHg 25%
    13:00 +22°C° 0 mm 1 mps 747 mmHg 23%
    14:00 +23°C° 0 mm 1 mps 746 mmHg 20%
    15:00 +23°C° 0 mm 1 mps 747 mmHg 22%
    16:00 +23°C° 0 mm 2 mps 747 mmHg 23%
    17:00 +23°C° 0 mm 2 mps 747 mmHg 25%
    18:00 +21°C° 0 mm 2 mps 747 mmHg 28%
    19:00 +21°C° 0 mm 2 mps 748 mmHg 30%
    20:00 +20°C° 0 mm 3 mps 748 mmHg 32%
    21:00 +19°C° 0 mm 2 mps 749 mmHg 36%
    22:00 +19°C° 0 mm 2 mps 749 mmHg 40%
    23:00 +19°C° 0 mm 1 mps 749 mmHg 44%

    27 March, Wednesday

    Time Temperature Precipitation Wind Pressure Humidity
    00:00 +19°C° 0 mm 1 mps 749 mmHg 46%
    01:00 +18°C° 0 mm 1 mps 749 mmHg 48%
    02:00 +18°C° 0 mm 1 mps 749 mmHg 51%
    03:00 +16°C° 0 mm 1 mps 749 mmHg 52%
    04:00 +16°C° 0 mm 1 mps 749 mmHg 53%
    05:00 +14°C° 0 mm 0 mps 750 mmHg 54%
    06:00 +16°C° 0 mm 1 mps 750 mmHg 51%
    07:00 +18°C° 0 mm 1 mps 751 mmHg 47%
    08:00 +18°C° 0 mm 2 mps 751 mmHg 44%
    09:00 +19°C° 0 mm 2 mps 751 mmHg 41%
    10:00 +20°C° 0 mm 2 mps 751 mmHg 37%
    11:00 +21°C° 0 mm 3 mps 751 mmHg 34%
    12:00 +22°C° 0 mm 3 mps 750 mmHg 32%
    13:00 +24°C° 0 mm 3 mps 750 mmHg 29%
    14:00 +24°C° 0 mm 3 mps 749 mmHg 26%
    15:00 +25°C° 0 mm 3 mps 749 mmHg 25%
    16:00 +25°C° 0 mm 3 mps 749 mmHg 24%
    17:00 +25°C° 0 mm 4 mps 749 mmHg 23%
    18:00 +24°C° 0 mm 3 mps 750 mmHg 25%
    19:00 +23°C° 0 mm 2 mps 750 mmHg 27%
    20:00 +22°C° 0 mm 1 mps 751 mmHg 29%
    21:00 +21°C° 0 mm 2 mps 751 mmHg 31%
    22:00 +20°C° 0 mm 2 mps 750 mmHg 32%
    23:00 +20°C° 0 mm 2 mps 750 mmHg 34%
    Show more